Regional Weather Roundup
Issued by NWS

Home | Current Version | Previous Version | Graphics & Text | Print | Product List | Glossary On
Versions: 1 2 3 4 5 6 7 8 9 10 11 12 13 14 15 16 17 18 19 20 21 22 23 24 25 26 27 28 29 30 31 32 33 34 35 36 37 38 39 40 41 42 43 44 45 46 47 48 49 50
000
ASUS43 KDMX 230701
RWRIA

WEATHER ROUNDUP FOR IOWA
NATIONAL WEATHER SERVICE DES MOINES IA
200 AM CDT TUE MAY 23 2017

NOTE: "FAIR" INDICATES FEW OR NO CLOUDS BELOW 12,000 FEET WITH NO
SIGNIFICANT WEATHER AND/OR OBSTRUCTIONS TO VISIBILITY.

* - THESE STATIONS ARE NOT NWS STATIONS...THUS NOT UNDER NWS
QUALITY CONTROL.  THEY ALSO DO NOT REPORT WEATHER SUCH
AS PRECIPITATION OR FOG.

IAZ001>003-012>014-020>022-031>034-043>046-230800-
   NORTHWEST IOWA

CITY           SKY/WX    TMP DP  RH WIND       PRES   REMARKS
CARROLL *      CLEAR     52  50  93 NW15      29.86F
CHEROKEE *     CLOUDY    50  47  90 W3        29.89F
DENISON *      CLOUDY    48  45  87 NW6       29.92S
LE MARS *      PTCLDY    46  45  93 W6        29.92F
ORANGE CITY *  PTCLDY    45  45 100 NW6       29.90F
SHELDON *      MOCLDY    48  45  87 NW9         N/A
SIOUX CITY     CLEAR     47  45  93 W7        29.92F
SPENCER        CLOUDY    49  47  93 NW6       29.88F
STORM LAKE *   CLOUDY    50  46  87 NW8       29.89S
$$

IAZ055>058-069>071-079>083-090>094-230800-
   SOUTHWEST IOWA

CITY           SKY/WX    TMP DP  RH WIND       PRES   REMARKS
ATLANTIC *     CLOUDY    54  48  82 NW14G20   29.88S
AUDUBON *      CLOUDY    52  46  82 NW6       29.88F
CLARINDA *     CLOUDY    55  52  88 N8        29.89S
COUNCIL BLFS * CLOUDY    52  50  93 NW10      29.90F
CRESTON *      CLOUDY    52  50  93 NW7       29.87S
HARLAN  *      CLOUDY    52  48  87 NW13G20   29.92F
LAMONI         CLOUDY    53  52  96 SW8       29.86S
RED OAK *      CLOUDY    55  50  82 N14       29.88S
SHENANDOAH *   CLEAR     55  50  82 N12       29.89R
$$

IAZ047>049-059>061-072>074-084-230800-
   CENTRAL IOWA

CITY           SKY/WX    TMP DP  RH WIND       PRES   REMARKS
AMES           CLEAR     52  50  93 W7        29.82F
ANKENY *       PTCLDY    52  50  93 W7        29.84F
BOONE *        PTCLDY    52  52 100 W12       29.82F
DES MOINES     PTCLDY    53  52  96 NW5       29.83F
GRINNELL*      CLOUDY    52  49  87 SW6       29.83F
MARSHALLTOWN   CLOUDY    51  50  96 NW7       29.80F
NEWTON *       CLOUDY    54  50  87 SW6       29.81F
PELLA *        CLOUDY    53  51  94 SW5       29.84S
PERRY *          N/A     53  51  90 NW9       29.85F
$$

IAZ004>006-015-016-023>025-035-036-230800-
   NORTH CENTRAL IOWA

CITY           SKY/WX    TMP DP  RH WIND       PRES   REMARKS
ALGONA *       CLOUDY    52  52 100 NW8       29.86F
CLARION *      CLOUDY    52  52 100 N8        29.84S
ESTHERVILLE    CLOUDY    49  48  97 NW9       29.86F
FORT DODGE *   CLOUDY    52  48  87 NW8       29.86F
MASON CITY     CLOUDY    51  48  89 N12       29.84F
FOREST CITY *  LGT RAIN  50  45  81 NW3       29.84S
WEBSTER CITY * MOCLDY    50  50 100 NW12      29.82S
IOWA FALLS *     N/A     51  49  93 NW8       29.82F
$$

IAZ007>011-017>019-026>030-037>042-050>054-066-230800-
   NORTHEAST IOWA

CITY           SKY/WX    TMP DP  RH WIND       PRES   REMARKS
CEDAR RAPIDS   CLEAR     52  52 100 SW5       29.79F
CHARLES CITY * MOCLDY    50  50 100 NW8       29.81F
CLINTON *      CLOUDY    54  52  93 SW8       29.83F
DECORAH *      CLOUDY    52  52 100 NW3       29.78F FOG
DUBUQUE        MOCLDY    53  52  96 S7        29.80F
MONTICELLO *   MOCLDY    54  52  94 S6        29.79F
OELWEIN *      MOCLDY    52  52 100 W8        29.79F
WATERLOO       PTCLDY    52  50  93 NW7       29.79F
$$

IAZ064-065-067-068-078-230800-
   EAST CENTRAL IOWA

CITY           SKY/WX    TMP DP  RH WIND       PRES   REMARKS
DAVENPORT      CLOUDY    56  51  84 SW9       29.83F
IOWA CITY      CLOUDY    55  51  86 SW3       29.83F
MUSCATINE *    CLOUDY    55  50  82 SW8       29.83F
QUAD CITIES    CLOUDY    56  51  84 CALM      29.83F
$$

IAZ062-063-075>077-085>089-095>099-230800-
   SOUTHEAST IOWA

CITY           SKY/WX    TMP DP  RH WIND       PRES   REMARKS
BURLINGTON     CLOUDY    57  54  89 S12       29.85F
FAIRFIELD *    CLOUDY    54  50  87 SW6       29.84S
FORT MADISON * CLOUDY    57  55  94 S9        29.86F
KEOKUK *       MOCLDY    57  55  94 SW10      29.86F
OSKALOOSA *      N/A     52  49  92 SW6       29.84F
OTTUMWA        CLOUDY    53  51  93 SW9       29.84S
WASHINGTON *   PTCLDY    54  52  94 SW7       29.84F
$$

ABBREVIATIONS USED IN REMARKS
   TC - TEMPERATURES IN CELSIUS
  WCI - WIND CHILL INDEX
   HX - HEAT INDEX
  VSB - VISIBILITY
$$





USA.gov is the U.S. government's official web portal to all federal, state and local government web resources and services.